[[{"header":{"parameterUnit":"m.s-1","parameterCategory":1,"la1":30.2991,"la2":30.254,"lo1":-89.0895,"lo2":-89.0444,"dy":0.0017,"dx":0.0017,"nx":28,"ny":28,"refTime":"2023-08-12T21:00:00:Z","depth":0,"parameterNumber":2,"parameterNumberName":"U-component_of_WINDS"},"data":[0,0,0,0,0,0,0,0,0,0,0,0,0,0,0,0,0,0,0,0,0,0,0,0,0,0,0,0,0,0,0,0,0,0,0,0,0,0,0,0,0,0,0,0,0,0,0,0,0,0,0,0,0,0,0,0,0,0,3.6296,3.6296,0,3.6336,3.6336,3.6337,3.6275,3.6273,3.6271,3.6269,3.6312,3.6315,3.6318,0,0,0,0,0,0,0,0,0,0,0,0,0,3.617,3.6173,3.6296,3.6296,3.6297,3.6336,3.6336,3.6337,3.6276,3.6273,3.6271,3.6268,3.6311,3.6314,3.6318,0,0,0,0,0,0,0,0,0,0,0,0,0,3.6219,3.6174,3.6296,3.6271,3.6269,3.6336,3.6336,3.6337,3.6276,3.6273,3.627,3.6267,3.6309,3.6314,3.6319,3.6412,0,0,3.6333,3.6335,0,0,0,0,0,0,0,0,3.6216,3.6224,3.6274,3.6273,3.6271,3.6297,3.6307,3.6362,3.6277,3.6274,3.6269,3.6265,3.631,3.6314,3.6329,3.6414,3.6415,3.6333,3.6336,3.6338,3.634,0,0,0,0,0,0,0,3.6213,3.6222,3.6312,3.6275,3.6273,3.6259,3.6262,3.6318,3.6309,3.6274,3.6269,3.6275,3.6308,3.6324,3.6329,3.6416,3.6333,3.6337,3.634,3.6342,3.6582,3.6585,0,0,0,0,0,0,3.6212,3.6219,3.631,3.6313,3.6235,3.6264,3.6268,3.6292,3.6308,3.6308,3.6278,3.6272,3.6318,3.6324,3.633,3.6442,3.6338,3.6343,3.6345,3.6578,3.6583,3.6586,0,0,0,0,0,0,3.621,3.6221,3.6309,3.6265,3.6275,3.6269,3.6297,3.6295,3.6311,3.6311,3.631,3.6295,3.6316,3.6324,3.6392,3.6442,3.6345,3.6349,3.6574,3.658,3.6585,3.6664,0,0,0,0,0,0,3.6206,3.622,3.6255,3.6266,3.6278,3.6369,3.63,3.6298,3.6319,3.6312,3.6328,3.6327,3.6314,3.6386,3.6397,3.6447,3.6353,3.657,3.6577,3.6583,3.6657,3.6672,3.6684,0,0,0,0,0,3.6202,3.6276,3.6257,3.6268,3.632,3.6372,3.6379,3.6361,3.6323,3.6358,3.6359,3.6327,3.6435,3.6393,3.6405,3.6458,3.6566,3.6575,3.6582,3.6651,3.6669,3.6684,0,0,0,0,0,0,3.627,3.6276,3.6256,3.6335,3.6354,3.6362,3.6405,3.638,3.6411,3.6403,3.638,3.6385,3.6458,3.6465,3.6418,3.655,3.6494,3.6505,3.6543,3.656,3.6573,3.657,3.6356,0,0,0,0,0,3.6294,3.6335,3.6339,3.6408,3.6419,3.6411,3.6433,3.6418,3.6436,3.6444,3.645,3.647,3.6508,3.6534,3.657,3.6658,3.6662,3.67,3.6714,3.6725,3.6735,3.6784,3.6802,3.6613,3.6613,3.6613,0,0,3.6345,3.6353,3.638,3.6422,3.6435,3.6479,3.6418,3.6466,3.6499,3.6451,3.6517,3.6522,3.6543,3.6622,3.6657,3.663,3.6788,3.6735,3.6744,3.6748,3.6794,3.6812,3.6828,3.6618,3.6617,3.6616,0,0,3.6459,3.6469,3.6529,3.6543,3.6563,3.6558,3.6573,3.6585,3.6587,3.6652,3.6618,3.6657,3.6724,3.6741,3.6758,3.6882,3.6854,3.6894,3.6965,3.7013,3.7028,3.7041,3.7086,3.7103,3.6904,3.6904,3.6904,0,3.6519,3.6583,3.6563,3.6615,3.6635,3.6594,3.6656,3.6671,3.6702,3.6717,3.6686,3.677,3.6781,3.6865,3.6896,3.6911,3.6928,3.6892,3.7027,3.704,3.7052,3.7095,3.7112,3.6909,3.6908,3.6908,3.6907,0,3.6657,3.6702,3.6748,3.678,3.6805,3.6862,3.6851,3.688,3.6863,3.6862,3.693,3.6942,3.698,3.6999,3.6983,3.7082,3.7064,3.7031,3.6975,3.7075,3.7116,3.7132,3.6916,3.6914,3.6913,3.6911,0,0,3.6814,3.6835,3.6852,3.6867,3.6887,3.6922,3.6978,3.7015,3.7041,3.7064,3.7111,3.717,3.7139,3.7159,3.7145,3.7188,3.7287,3.7149,3.7149,3.7175,3.7398,3.7424,3.7443,3.7269,3.7272,3.7274,3.7397,0,3.6929,3.7024,3.7009,3.7101,3.7144,3.7107,3.7156,3.7174,3.7175,3.7212,3.7213,3.7255,3.7211,3.7223,3.7264,3.7266,3.7332,3.7257,3.7314,3.7316,3.731,3.7464,3.749,3.7605,3.7412,3.7415,3.7417,0,3.7075,3.7105,3.7202,3.7217,3.7234,3.7278,3.7312,3.7348,3.7369,3.7367,3.739,3.7369,3.7427,3.737,3.7449,3.7399,3.7422,3.7427,3.7431,3.7436,3.7372,3.7474,3.7641,3.7659,3.7441,3.7439,3.7437,0,3.7182,3.7245,3.7312,3.7326,3.7345,3.7377,3.7387,3.7405,3.7429,3.7459,3.7475,3.7512,3.7532,3.7562,3.7552,3.7511,3.7634,3.7576,3.7635,3.7635,3.7662,3.7661,3.7837,3.7676,3.7676,3.7675,3.7675,0,3.7312,3.7373,3.736,3.7401,3.747,3.7452,3.752,3.7526,3.7543,3.7585,3.7556,3.7596,3.7581,3.7621,3.7614,3.7682,3.7691,3.7692,3.7689,3.7695,3.7695,3.7709,3.7701,3.768,3.7679,3.7678,3.7677,0,3.7442,3.7436,3.7506,3.752,3.7524,3.7574,3.7586,3.7626,3.7624,3.7679,3.7691,3.769,3.7736,3.7729,3.778,3.7776,3.7861,3.7848,3.7853,3.7851,3.791,3.7905,3.8102,3.8127,3.795,3.7951,3.7953,0,3.7526,3.7572,3.7591,3.7617,3.7629,3.7672,3.7697,3.7682,3.7709,3.7738,3.7775,3.7818,3.7852,3.7928,3.7933,3.7972,3.7961,3.8027,3.7967,3.7971,3.7963,3.7961,3.7966,3.8039,3.8041,3.8043,3.8044,0,3.7675,3.7671,3.7707,3.7744,3.7774,3.7802,3.7827,3.7851,3.7838,3.7871,3.7918,3.7944,3.7997,3.8042,3.8079,3.8091,3.8067,3.8063,3.8079,3.8086,3.8087,3.8088,3.7887,3.8059,3.8057,3.8056,3.8056,3.8055,3.7785,3.7826,3.7846,3.7888,3.7905,3.793,3.7968,3.7973,3.8011,3.8053,3.8042,3.8096,3.8118,3.8166,3.8182,3.8225,3.82,3.8223,3.8229,3.8235,3.8242,3.808,3.8231,3.8231,3.823,3.823,3.823,0,3.7935,3.7946,3.7985,3.8022,3.8056,3.8029,3.8057,3.8087,3.8134,3.8157,3.8191,3.8246,3.829,3.8298,3.834,3.8373,3.8363,3.8384,3.8382,3.8385,3.8261,3.8244,3.8392,3.8392,3.8392,3.8392,3.8392,3.8391,3.8016,3.8083,3.8081,3.8158,3.8169,3.8221,3.8239,3.8262,3.828,3.8343,3.8379,3.8384,3.8401,3.8444,3.8484,3.8485,3.8502,3.8529,3.8526,3.841,3.8394,3.8378,3.8362,3.8532,3.8532,3.8647,3.8648,3.8648]},{"header":{"parameterUnit":"m.s-1","parameterCategory":1,"la1":30.2991,"la2":30.254,"lo1":-89.0895,"lo2":-89.0444,"dy":0.0017,"dx":0.0017,"nx":28,"ny":28,"refTime":"2023-08-12T21:00:00:Z","depth":0,"parameterNumber":3,"parameterNumberName":"V-component_of_WINDS"},"data":[0,0,0,0,0,0,0,0,0,0,0,0,0,0,0,0,0,0,0,0,0,0,0,0,0,0,0,0,0,0,0,0,0,0,0,0,0,0,0,0,0,0,0,0,0,0,0,0,0,0,0,0,0,0,0,0,0,0,-0.5866,-0.5867,0,-0.5901,-0.5902,-0.5902,-0.5919,-0.5919,-0.5919,-0.5919,-0.5955,-0.5956,-0.5957,0,0,0,0,0,0,0,0,0,0,0,0,0,-0.5814,-0.5815,-0.5866,-0.5867,-0.5867,-0.5901,-0.5902,-0.5902,-0.5919,-0.5919,-0.5919,-0.5919,-0.5954,-0.5955,-0.5957,0,0,0,0,0,0,0,0,0,0,0,0,0,-0.5842,-0.5815,-0.5866,-0.5879,-0.5881,-0.5901,-0.5902,-0.5902,-0.5919,-0.5919,-0.5919,-0.5919,-0.5954,-0.5955,-0.5957,-0.5967,0,0,-0.5961,-0.5962,0,0,0,0,0,0,0,0,-0.584,-0.5844,-0.5877,-0.5878,-0.588,-0.5906,-0.5897,-0.5924,-0.5919,-0.5904,-0.5919,-0.5918,-0.5938,-0.5941,-0.5948,-0.5968,-0.597,-0.5961,-0.5962,-0.5963,-0.5963,0,0,0,0,0,0,0,-0.5838,-0.5842,-0.588,-0.5877,-0.5879,-0.5884,-0.5888,-0.5902,-0.5921,-0.5906,-0.5907,-0.5911,-0.5939,-0.5946,-0.5949,-0.5971,-0.5961,-0.5963,-0.5964,-0.5964,-0.6003,-0.6004,0,0,0,0,0,0,-0.5834,-0.584,-0.5879,-0.5881,-0.586,-0.5885,-0.5889,-0.5897,-0.5921,-0.5925,-0.5911,-0.5911,-0.5944,-0.5947,-0.595,-0.5965,-0.5963,-0.5964,-0.5965,-0.6003,-0.6003,-0.6004,0,0,0,0,0,0,-0.5833,-0.5837,-0.5878,-0.5861,-0.5867,-0.5886,-0.5895,-0.5898,-0.5905,-0.5925,-0.5928,-0.5914,-0.5944,-0.5948,-0.5963,-0.5966,-0.5965,-0.5966,-0.6003,-0.6003,-0.6004,-0.5993,0,0,0,0,0,0,-0.5831,-0.5837,-0.584,-0.5861,-0.5867,-0.5889,-0.5895,-0.5899,-0.5908,-0.5909,-0.5929,-0.5933,-0.5944,-0.5961,-0.5964,-0.5968,-0.5968,-0.6003,-0.6003,-0.6003,-0.5993,-0.5993,-0.5993,0,0,0,0,0,-0.5829,-0.5836,-0.584,-0.5845,-0.5872,-0.589,-0.5893,-0.5906,-0.5908,-0.5912,-0.5925,-0.5932,-0.5965,-0.5962,-0.5966,-0.5971,-0.6003,-0.6003,-0.6003,-0.5994,-0.5993,-0.5993,0,0,0,0,0,0,-0.5814,-0.5838,-0.5844,-0.5857,-0.5871,-0.5892,-0.5898,-0.5905,-0.5919,-0.592,-0.5935,-0.594,-0.5954,-0.5964,-0.596,-0.5983,-0.5985,-0.5986,-0.5976,-0.5976,-0.5975,-0.5973,-0.5969,0,0,0,0,0,-0.5812,-0.5824,-0.5845,-0.5854,-0.5861,-0.5878,-0.5886,-0.5895,-0.591,-0.5916,-0.593,-0.5945,-0.5959,-0.5968,-0.5981,-0.5995,-0.6,-0.6,-0.6,-0.6,-0.6001,-0.601,-0.6011,-0.6005,-0.6005,-0.6005,0,0,-0.5809,-0.5823,-0.583,-0.5852,-0.5864,-0.5876,-0.5883,-0.5895,-0.5905,-0.5918,-0.5934,-0.5945,-0.5962,-0.5977,-0.5984,-0.5986,-0.6004,-0.6,-0.6,-0.6001,-0.6011,-0.6011,-0.6012,-0.6005,-0.6005,-0.6005,0,0,-0.5809,-0.582,-0.5831,-0.5843,-0.5861,-0.5873,-0.5875,-0.5895,-0.5903,-0.5919,-0.593,-0.5942,-0.5965,-0.5977,-0.5987,-0.5993,-0.6001,-0.5997,-0.5996,-0.6005,-0.6006,-0.6007,-0.601,-0.6011,-0.5998,-0.5998,-0.5998,0,-0.5802,-0.5821,-0.5835,-0.5847,-0.5857,-0.587,-0.5881,-0.5892,-0.5914,-0.5921,-0.5922,-0.5953,-0.5966,-0.5984,-0.5986,-0.5993,-0.5997,-0.5995,-0.6005,-0.6005,-0.6006,-0.601,-0.6011,-0.5998,-0.5998,-0.5998,-0.5998,0,-0.5812,-0.5825,-0.5831,-0.5853,-0.5863,-0.5875,-0.5891,-0.59,-0.5909,-0.5921,-0.5938,-0.5953,-0.5971,-0.5976,-0.5984,-0.5997,-0.5998,-0.6002,-0.6004,-0.6006,-0.601,-0.6011,-0.5997,-0.5997,-0.5997,-0.5998,0,0,-0.5803,-0.5833,-0.5835,-0.5846,-0.5867,-0.5878,-0.5891,-0.5909,-0.5917,-0.5932,-0.5944,-0.5964,-0.5969,-0.5979,-0.5989,-0.5997,-0.6004,-0.6001,-0.6001,-0.6002,-0.602,-0.6018,-0.6019,-0.6009,-0.6009,-0.6009,-0.6019,0,-0.5806,-0.583,-0.5844,-0.5862,-0.5875,-0.5888,-0.59,-0.5915,-0.5926,-0.594,-0.5953,-0.5967,-0.5971,-0.5978,-0.5987,-0.6001,-0.6008,-0.6,-0.6021,-0.6021,-0.6017,-0.6021,-0.6018,-0.6026,-0.6021,-0.6021,-0.6021,0,-0.5813,-0.5829,-0.5848,-0.5871,-0.5877,-0.5887,-0.5905,-0.5917,-0.5935,-0.5944,-0.5956,-0.5967,-0.5982,-0.5983,-0.6005,-0.5999,-0.6009,-0.6017,-0.6018,-0.6021,-0.6022,-0.6025,-0.6029,-0.6031,-0.6023,-0.6023,-0.6023,0,-0.5806,-0.5832,-0.5847,-0.5856,-0.5882,-0.5889,-0.59,-0.5918,-0.5928,-0.5945,-0.5952,-0.597,-0.598,-0.5994,-0.6009,-0.6008,-0.603,-0.6032,-0.6038,-0.6037,-0.6042,-0.6042,-0.6049,-0.6046,-0.6046,-0.6046,-0.6046,0,-0.5809,-0.5821,-0.5845,-0.5854,-0.5868,-0.5885,-0.5898,-0.591,-0.5927,-0.594,-0.5952,-0.5964,-0.5983,-0.5998,-0.6009,-0.6027,-0.6031,-0.6038,-0.6042,-0.6038,-0.6037,-0.6045,-0.6045,-0.6047,-0.6047,-0.6047,-0.6047,0,-0.5803,-0.582,-0.5838,-0.5861,-0.5867,-0.5877,-0.5897,-0.5908,-0.592,-0.5937,-0.5942,-0.5962,-0.598,-0.5996,-0.602,-0.6028,-0.6046,-0.605,-0.604,-0.6042,-0.6048,-0.6047,-0.6061,-0.6064,-0.6058,-0.6058,-0.6058,0,-0.5805,-0.5814,-0.5839,-0.5849,-0.586,-0.5875,-0.5886,-0.5903,-0.5914,-0.5937,-0.5945,-0.5964,-0.598,-0.6008,-0.6026,-0.6044,-0.6049,-0.6052,-0.6052,-0.6048,-0.6051,-0.605,-0.6052,-0.6052,-0.6052,-0.6052,-0.6052,0,-0.5806,-0.5814,-0.5829,-0.5848,-0.5861,-0.5877,-0.5893,-0.59,-0.592,-0.5933,-0.5952,-0.5964,-0.5989,-0.6008,-0.603,-0.6042,-0.6051,-0.6052,-0.6055,-0.6052,-0.6046,-0.6051,-0.6041,-0.6052,-0.6052,-0.6052,-0.6052,-0.6052,-0.5804,-0.5814,-0.5833,-0.5851,-0.5865,-0.588,-0.5892,-0.5907,-0.5922,-0.5944,-0.5953,-0.5973,-0.5993,-0.6022,-0.6034,-0.605,-0.6052,-0.6056,-0.6057,-0.6058,-0.6058,-0.6043,-0.6054,-0.6054,-0.6054,-0.6054,-0.6054,0,-0.5807,-0.582,-0.5836,-0.5859,-0.5873,-0.5881,-0.5899,-0.5911,-0.5928,-0.5945,-0.5962,-0.5984,-0.6003,-0.6023,-0.6043,-0.6053,-0.6058,-0.6058,-0.6057,-0.6061,-0.6054,-0.605,-0.6053,-0.6053,-0.6053,-0.6053,-0.6053,-0.6053,-0.581,-0.5827,-0.5838,-0.5863,-0.5877,-0.5896,-0.5906,-0.5921,-0.5935,-0.596,-0.5976,-0.5989,-0.6008,-0.603,-0.6049,-0.6054,-0.6061,-0.6061,-0.6067,-0.6061,-0.6061,-0.6061,-0.6057,-0.6062,-0.6062,-0.6072,-0.6073,-0.6073]}]]